Location: Unspecified
(35.7250°N, 0.0000°E)
Time: 20:14:36
(UTC+00:00)

Courier 1B Rocket - Pass Details

Date: 15 August 2020
Orbit: 920 x 1202 km, 28.2° (Epoch: 01 October)

Event Time Altitude Azimuth Distance (km) Brightness Sun altitude
Exits shadow 03:31:23 36° 219° (SW) 1,451 5.4 -20.3°
Maximum altitude 03:32:58 42° 185° (S) 1,323 5.4 -20.1°
Drops below altitude 10° 03:39:06 10° 116° (ESE) 2,740 7.7 -19.1°
Sets 03:41:59 0° 110° (ESE) 3,732 8.6 -18.6°
